Regional Weather Roundup
Issued by NWS

Home | Current Version | Previous Version | Text Only | Print | Product List | Glossary On
Versions: 1 2 3 4 5 6 7 8 9 10 11 12 13 14 15 16 17 18 19 20 21 22 23 24 25 26 27 28 29 30 31 32 33 34 35 36 37 38 39 40 41 42 43 44 45 46 47 48 49 50
663
ASUS44 KJAN 210510
RWRMS

MISSISSIPPI HOURLY WEATHER ROUNDUP
NATIONAL WEATHER SERVICE JACKSON MS
1200 AM CDT SUN SEP 21 2014

NOTE: "FAIR: INDICATES FEW OR NO CLOUDS BELOW 12,000 FEET WITH NO
SIGNIFICANT WEATHER AND/OR OBSTRUCTIONS TO VISIBILITY.

MSZ001>002-007>008-010>013-018>021-025>028-034>036-210600-
NORTHWEST MISSISSIPPI

CITY           SKY/WX    TMP DP  RH WIND       PRES   REMARKS
CLARKSDALE     FAIR      72  72 100 CALM      30.03R
CLEVELAND      FAIR      76  71  83 CALM      30.01F
GREENWOOD      CLEAR     71  68  90 CALM      30.02S
GREENVILLE     CLEAR     73  67  81 CALM      30.01S
GRENADA        FAIR      70  70 100 CALM      30.03S
OLIVE BRANCH   CLEAR     72  72 100 S6        30.02F
OXFORD         FAIR      68  66  94 CALM      30.05S
TUNICA         CLEAR     72  68  88 S3        30.02S
$$

MSZ003>006-009-014>017-022>024-029>033-037>039-210600-
NORTHEAST MISSISSIPPI

CITY           SKY/WX    TMP DP  RH WIND       PRES   REMARKS
COLUMBUS AFB   PTCLDY    67  66  95 CALM      30.04R
CORINTH        FOG       68  66  94 CALM      30.02S VSB 1/4
GOLDN TRIANGLE CLEAR     70  63  78 S5        30.04S
STARKVILLE     FAIR      68  64  88 CALM      30.04R
TUPELO         MOCLDY    72  69  90 CALM      30.03S
$$

MSZ040-058-210600-
CENTRAL MISSISSIPPI

CITY           SKY/WX    TMP DP  RH WIND       PRES   REMARKS
JACKSON INTL   CLEAR     73  67  81 CALM      30.03R
JACKSON HAWKNS CLEAR     73  68  84 CALM      30.03R
MERIDIAN KEY   CLEAR     68  65  90 CALM      30.04S
MERIDIAN NAS   CLEAR     69  65  86 CALM      30.04F
RAYMOND        FAIR      68  64  88 CALM      30.02S HAZE
VICKSBURG      CLEAR     70  68  93 CALM      30.01S
$$

MSZ059>079-210600-
SOUTH MISSISSIPPI

CITY           SKY/WX    TMP DP  RH WIND       PRES   REMARKS
BROOKHAVEN     FAIR      70  68  94 CALM      30.04S
COLUMBIA       FAIR      70  68  94 CALM      30.02R
HATTIESBURG    CLEAR     68  67  96 CALM      30.03R
MCCOMB         PTCLDY    73  67  81 NE5       30.02S
NATCHEZ        CLEAR     72  68  88 CALM      30.02S
PINE BELT      CLEAR    N/A N/A N/A CALM      30.04R
$$

MSZ080>082-210600-
COASTAL MISSISSIPPI

CITY           SKY/WX    TMP DP  RH WIND       PRES   REMARKS
BILOXI         CLEAR     75  67  76 E7        29.98F
PASCAGOULA     CLEAR     67  65  93 CALM      29.98F
GULFPORT       CLEAR     74  67  78 E3        29.98F
$$



USA.gov is the U.S. government's official web portal to all federal, state and local government web resources and services.